TimeCST,TemperatureF,Dew PointF,Humidity,Sea Level PressureIn,VisibilityMPH,Wind Direction,Wind SpeedMPH,Gust SpeedMPH,PrecipitationIn,Events,Conditions,WindDirDegrees,DateUTC
12:53 AM,48.0,43.0,83,30.13,10.0,South,5.8,-,N/A,,Clear,170,2013-01-21 06:53:00
1:53 AM,46.9,43.0,86,30.14,10.0,SSE,6.9,-,N/A,,Clear,160,2013-01-21 07:53:00
2:53 AM,48.0,44.1,86,30.15,10.0,South,9.2,-,N/A,,Clear,180,2013-01-21 08:53:00
3:53 AM,46.9,44.1,90,30.14,10.0,SSW,5.8,-,N/A,,Clear,200,2013-01-21 09:53:00
4:53 AM,44.1,43.0,96,30.15,7.0,Calm,Calm,-,N/A,,Clear,0,2013-01-21 10:53:00
5:53 AM,42.1,41.0,96,30.16,6.0,West,6.9,-,N/A,,Clear,280,2013-01-21 11:53:00
6:53 AM,42.1,39.9,92,30.19,5.0,NW,8.1,-,N/A,,Clear,310,2013-01-21 12:53:00
7:29 AM,42.8,41.0,93,30.21,2.5,NNW,12.7,-,N/A,,Partly Cloudy,340,2013-01-21 13:29:00
7:41 AM,42.8,41.0,93,30.21,1.8,North,12.7,-,N/A,,Mostly Cloudy,350,2013-01-21 13:41:00
7:46 AM,42.8,39.2,87,30.22,2.0,North,13.8,-,N/A,,Scattered Clouds,350,2013-01-21 13:46:00
7:53 AM,42.1,39.9,92,30.22,2.0,North,15.0,-,N/A,,Scattered Clouds,350,2013-01-21 13:53:00
8:10 AM,42.8,39.2,87,30.23,4.0,North,16.1,-,N/A,,Clear,350,2013-01-21 14:10:00
8:53 AM,43.0,37.9,82,30.24,10.0,North,13.8,-,N/A,,Clear,360,2013-01-21 14:53:00
9:53 AM,46.9,36.0,66,30.26,10.0,NNW,11.5,-,N/A,,Clear,340,2013-01-21 15:53:00
10:53 AM,48.9,36.0,61,30.28,10.0,NNW,13.8,-,N/A,,Clear,340,2013-01-21 16:53:00
11:53 AM,53.1,37.0,55,30.27,10.0,North,11.5,-,N/A,,Clear,360,2013-01-21 17:53:00
12:53 PM,55.9,37.0,49,30.25,10.0,North,9.2,-,N/A,,Clear,10,2013-01-21 18:53:00
1:53 PM,57.9,37.9,47,30.23,10.0,North,8.1,-,N/A,,Clear,360,2013-01-21 19:53:00
2:53 PM,59.0,37.9,46,30.23,10.0,NNW,9.2,-,N/A,,Clear,330,2013-01-21 20:53:00
3:53 PM,60.1,39.0,46,30.23,10.0,North,6.9,-,N/A,,Clear,350,2013-01-21 21:53:00
4:53 PM,59.0,39.9,49,30.23,10.0,North,8.1,-,N/A,,Clear,360,2013-01-21 22:53:00
5:53 PM,54.0,41.0,62,30.22,10.0,North,3.5,-,N/A,,Clear,360,2013-01-21 23:53:00
6:53 PM,51.1,39.9,66,30.23,10.0,NNW,4.6,-,N/A,,Clear,340,2013-01-22 00:53:00
7:53 PM,48.9,39.0,69,30.24,10.0,NNW,5.8,-,N/A,,Clear,340,2013-01-22 01:53:00
8:53 PM,46.9,37.9,71,30.25,10.0,North,6.9,-,N/A,,Clear,350,2013-01-22 02:53:00
9:53 PM,46.0,37.0,71,30.25,10.0,North,5.8,-,N/A,,Clear,350,2013-01-22 03:53:00
10:53 PM,45.0,37.0,74,30.25,10.0,North,5.8,-,N/A,,Clear,360,2013-01-22 04:53:00
11:53 PM,43.0,36.0,76,30.25,10.0,NNE,5.8,-,N/A,,Clear,20,2013-01-22 05:53:00